Regional Weather Roundup
Issued by NWS Sioux Falls, SD

Home | Current Version | Previous Version | Text Only | Print | Product List | Glossary Off
Versions: 1 2 3 4 5 6 7 8 9 10 11 12 13 14 15 16 17 18 19 20 21 22 23 24 25 26 27 28 29 30 31 32 33 34 35 36 37 38 39 40 41 42 43 44 45 46 47 48 49 50

000
ASUS43 KFSD 231502
RWRFSD

WEATHER ROUNDUP FOR SE SOUTH DAKOTA/SW MINNESOTA/NW IOWA
NATIONAL WEATHER SERVICE SIOUX FALLS SD
1000 AM CDT THU OCT 23 2014

NOTE: "FAIR" INDICATES FEW OR NO CLOUDS BELOW 12,000 FEET WITH NO
SIGNIFICANT WEATHER AND OR OBSTRUCTIONS TO VISIBILITY.


SDZ038>040-050-052>070-231600-
SOUTHEAST SOUTH DAKOTA

CITY           SKY/WX    TMP DP  RH WIND       PRES   REMARKS
CHAMBERLAIN    SUNNY     47  44  90 CALM      30.00S
HURON          MOSUNNY   44  40  85 SE5       30.00S
MADISON        FAIR      48  48 100 W3        30.03R
MITCHELL       SUNNY     48  45  89 SE5       30.03R
SIOUX FALLS    MOSUNNY   52  50  93 CALM      30.04R
WINNER         FAIR      51  42  71 SW10      30.01R
YANKTON        MOSUNNY   46  45  93 CALM      30.06R
$$

MNZ071-072-080-081-089-090-097-098-231600-
SOUTHWEST MINNESOTA

CITY           SKY/WX    TMP DP  RH WIND       PRES   REMARKS
FAIRMONT       CLOUDY    52  46  82 W6        30.03S VSB 1/2
JACKSON        FOG       52  50  93 SW6       30.04R VSB 3/4
LUVERNE        FOG       46  45  93 CALM      30.05R VSB<1/4
MARSHALL       SUNNY     55  45  67 W13       29.99R
MONTEVIDEO     SUNNY     54  54 100 CALM      30.00R
PIPESTONE      FOG       46  46 100 CALM      30.03R VSB 1/4
REDWOOD FALLS  SUNNY     51  49  92 S7        30.00S
TRACY          SUNNY     56  50  81 SW12      30.01R
WINDOM         FOG       52  50  93 SW8       30.03R VSB 1/2
WORTHINGTON    SUNNY     52  50  93 SW7       30.04S
$$

IAZ001>003-012>014-020>022-031-032-NEZ013-014-SDZ071-231600-
NORTHWEST IOWA

CITY           SKY/WX    TMP DP  RH WIND       PRES   REMARKS
CHEROKEE       FOG       51  51 100 CALM      30.06R VSB 1/4
DENISON        MOSUNNY   59  57  94 VRB3      30.04S
ESTHERVILLE    FOG       50  50 100 VRB3      30.03S VSB 1/2
LE MARS        FOG       50  50 100 S5        30.06S VSB<1/4
ORANGE CITY    MOSUNNY   54  52  94 CALM      30.05R
SHELDON        FOG       48  48 100 SW5       30.04R VSB<1/4
SIOUX CITY     MOSUNNY   52  52 100 CALM      30.07R
SPENCER        FOG       50  50 100 W3        30.05R VSB<1/4
STORM LAKE     FOG       52  52 100 W6        30.06S VSB<1/4
$$

ABBREVIATIONS USED IN REMARKS
   TC - TEMPERATURE IN CELSIUS
  WCI - WIND CHILL INDEX
   HX - HEAT INDEX
  VSB - VISIBILITY




USA.gov is the U.S. government's official web portal to all federal, state and local government web resources and services.